Location: ???????
(44.5793°N, 34.0082°E)
Time: 22:25:05
(UTC+00:00)

Daily predictions for brighter satellites

Satellite Brightness Start Highest point End
(mag) Time Altitude Azimuth Time Altitude Azimuth Time Altitude Azimuth
STARLINK-1129 3.8 17:45:00 10° NW 17:49:08 73° NNE 17:53:16 10° ESE
Resurs 01 Rocket 2.1 17:45:25 10° SE 17:49:41 47° ENE 17:53:58 10° N
Cosmos 1464 Rocket 4.1 17:43:39 10° N 17:50:03 87° E 17:56:26 10° S
H-2A R/B 3.4 17:45:48 10° SSW 17:50:27 39° W 17:55:15 10° NNW
STARLINK-1189 3.2 17:47:59 10° SW 17:50:58 44° SE 17:53:58 10° ENE
CZ-2C R/B 4.5 17:46:12 10° SSW 17:51:13 41° W 17:56:31 10° NNW
STARLINK-1188 3.1 17:48:51 10° SW 17:51:50 45° SE 17:54:50 10° ENE
STARLINK-1235 2.8 17:49:27 10° SW 17:52:30 60° SE 17:55:33 10° ENE
STARLINK-1187 2.9 17:49:55 10° SW 17:52:56 53° SE 17:55:57 10° ENE
STARLINK-1134 3.7 17:50:00 10° NW 17:54:09 78° NNE 17:58:17 10° ESE
STARLINK-1191 3.1 17:51:19 10° SW 17:54:18 47° SE 17:57:18 10° ENE
STARLINK-1221 3.0 17:52:11 10° SW 17:55:11 48° SE 17:58:11 10° ENE
STARLINK-1222 3.0 17:53:04 10° SW 17:56:03 49° SE 17:59:04 10° ENE
STARLINK-1214 3.0 17:53:58 10° SW 17:56:59 51° SE 18:00:00 10° ENE
Aureole 1 Rocket 4.2 17:55:12 10° N 17:58:47 31° ENE 18:03:16 10° SE
STARLINK-1210 4.4 17:55:12 10° SSW 17:58:48 29° SE 18:02:25 10° ENE
STARLINK-1135 3.6 17:54:55 10° NW 17:59:05 84° NE 18:03:14 10° ESE
STARLINK-1157 3.4 17:56:10 10° WNW 17:59:28 58° SW 18:02:45 10° SE
USA 186 4.0 17:58:05 10° SW 17:59:45 17° W 18:01:28 10° NW
Abrixas rocket 1.8 17:57:33 10° WSW 18:00:30 82° SSE 18:03:27 10° ENE
Meteor 1-4 Rocket 4.0 17:59:03 10° SE 18:01:33 19° E 18:04:03 10° NE
CREW DRAGON DEMO-1 DEB 3.5 17:58:40 10° NW 18:01:42 50° NNE 18:04:43 10° ESE
STARLINK-1219 4.3 18:00:03 10° SSW 18:03:45 32° SE 18:07:28 10° ENE
STARLINK-1141 3.6 17:59:55 10° WNW 18:04:06 90° E 18:08:06 11° SE
Cosmos 1782 Rocket 4.2 18:00:15 10° N 18:04:28 39° ENE 18:08:40 10° SE
Cosmos 1140 Rocket 4.3 18:01:10 10° N 18:06:00 37° ENE 18:10:39 11° SE
STARLINK-1211 4.2 18:04:55 10° SSW 18:08:41 35° SE 18:12:28 10° ENE
Cosmos 1371 Rocket 4.4 18:04:06 10° S 18:09:02 43° ESE 18:13:58 10° NNE
STARLINK-1140 3.6 18:04:52 10° WNW 18:09:02 84° SW 18:12:51 12° SE
Cosmos 614 Rocket 4.0 18:04:18 10° NNW 18:09:22 65° ENE 18:14:21 10° SSE
Cosmos 1703 Rocket 3.6 18:06:14 10° S 18:10:29 60° E 18:14:46 10° NNE
BREEZE-M DEB (TANK) 3.6 18:03:06 10° WSW 18:11:26 90° NNW 18:15:04 10° ENE
DMSP B5D2-2 4.3 18:06:09 10° N 18:11:27 76° WNW 18:16:43 10° SSW
TELKOM 3 2.6 18:09:49 10° WNW 18:11:54 78° SSW 18:13:34 15° ESE
STARLINK-1245 4.1 18:09:49 10° SSW 18:13:39 38° SE 18:17:31 10° ENE
STARLINK-1156 3.6 18:09:52 10° WNW 18:14:01 78° SW 18:17:39 13° SE
Cosmos 2082 Rocket 4.0 18:11:21 10° N 18:15:32 20° NE 18:19:41 10° E
STARLINK-1233 4.0 18:14:42 10° SSW 18:18:36 42° SE 18:22:31 10° ENE
STARLINK-1148 3.7 18:14:51 10° WNW 18:19:00 72° SW 18:22:25 14° SE
Cosmos 1743 2.7 18:15:38 10° N 18:19:28 88° W 18:23:15 10° S
Cosmos 1544 3.5 18:19:11 10° N 18:22:42 44° ENE 18:25:25 15° SSE
BREEZE-M DEB (TANK) 3.5 18:20:41 10° W 18:22:49 29° SW 18:24:21 16° SSE
Cosmos 1908 Rocket 3.8 18:19:04 10° NNW 18:23:30 73° W 18:27:56 10° S
STARLINK-1204 3.9 18:19:37 10° SSW 18:23:34 45° SE 18:27:32 10° ENE
STARLINK-1158 3.8 18:19:51 10° WNW 18:23:57 66° SW 18:27:13 16° SE
Tsikada Rocket 4.0 18:18:07 10° S 18:24:18 78° E 18:30:29 10° N
ERS-1 Rocket 4.1 18:20:29 12° ESE 18:24:18 29° ENE 18:28:37 10° N
Cosmos 1833 Rocket 3.7 18:19:56 10° N 18:24:59 33° NE 18:29:27 13° ESE
SAR-Lupe-2 4.2 18:21:37 10° NNE 18:25:00 36° E 18:27:54 13° SSE
ERBS 4.4 18:27:21 11° E 18:27:21 11° E 18:27:46 10° E
STARLINK-1087 1.7 18:25:15 10° WNW 18:27:15 72° SW 18:28:08 28° SE
STARLINK-1238 3.8 18:24:30 10° SW 18:28:30 49° SE 18:32:30 10° ENE
Cosmos 909 Rocket 4.4 18:20:23 10° NNW 18:28:31 80° NE 18:34:13 15° SE
STARLINK-1162 3.8 18:24:49 10° WNW 18:28:54 61° SW 18:31:58 17° SE
Spot 2 Rocket 3.6 18:24:56 13° SSE 18:29:22 60° ENE 18:34:21 10° N
STARLINK-1115 4.5 18:27:07 10° NW 18:31:07 45° NNE 18:34:55 11° E
Meteor 2-9 Rocket 4.2 18:26:10 10° N 18:31:35 65° ENE 18:36:09 14° SSE
CZ-2C R/B 3.5 18:26:28 10° N 18:31:55 57° WNW 18:37:23 10° SSW
Cosmos 1975 2.8 18:29:18 10° N 18:33:21 68° E 18:36:35 15° SSE
STARLINK-1201 3.7 18:29:27 10° SW 18:33:29 55° SE 18:37:32 10° ENE
STARLINK-1076 4.4 18:32:05 10° NW 18:36:07 48° NNE 18:39:42 13° E
Cosmos 2056 Rocket 3.4 18:32:36 10° S 18:37:39 65° ESE 18:42:43 10° NNE
STARLINK-1206 3.6 18:34:22 10° SW 18:38:27 60° SE 18:42:32 10° ENE
STARLINK-1159 4.1 18:34:49 10° WNW 18:38:51 51° SW 18:41:33 19° SSE
STARLINK-1092 4.3 18:37:03 10° NW 18:41:06 51° NNE 18:44:28 14° E
ATLAS CENTAUR R/B 4.0 18:40:30 10° WNW 18:41:52 13° NW 18:42:59 10° N
Cosmos 389 Rocket 3.7 18:39:31 10° SSW 18:42:48 42° WNW 18:46:09 10° N
Okean 1 4.0 18:39:18 10° SSW 18:43:15 55° W 18:47:16 10° N
STARLINK-1205 3.5 18:39:19 10° SW 18:43:25 65° SE 18:47:31 10° ENE
STARLINK-1171 4.2 18:39:51 10° WNW 18:43:50 46° SW 18:46:21 20° SSE
Meteor 1-19 Rocket 4.2 18:38:32 10° S 18:44:05 87° ESE 18:49:53 10° NNE
Cosmos 1023 Rocket 4.5 18:38:58 10° NNW 18:44:12 80° ENE 18:48:05 18° SSE
STARLINK-1080 4.1 18:42:03 10° NW 18:46:08 54° NNE 18:49:17 16° ESE
Iridium 51 4.3 18:42:45 10° S 18:46:58 85° W 18:50:50 10° N
STARLINK-1218 3.5 18:44:15 10° SW 18:48:21 71° SE 18:52:30 10° ENE
STARLINK-1155 4.3 18:44:51 10° WNW 18:48:47 42° SW 18:51:08 21° SSE
Cosmos 2278 Rocket 2.4 18:43:38 10° S 18:49:04 50° ESE 18:54:34 10° NE
SL-4 R/B 3.7 18:47:14 10° N 18:49:12 15° NE 18:50:52 11° E
Cosmos 44 Rocket 4.5 18:45:16 10° NW 18:49:43 36° WSW 18:53:44 12° S
STARLINK-1090 4.0 18:47:02 10° NW 18:51:07 58° NNE 18:54:04 18° ESE
ISS -1.7 18:48:55 10° NW 18:51:50 26° N 18:54:44 10° ENE
NOSS 2-3 (E) 3.6 18:47:48 10° SW 18:52:03 87° NW 18:57:04 10° NE
SL-8 R/B 4.2 18:47:51 10° W 18:52:37 64° NNW 18:57:25 10° ENE
STARLINK-1254 3.5 18:49:13 10° SW 18:53:20 77° SE 18:57:29 10° ENE
CARTOSAT-1 4.1 18:51:08 22° SE 18:53:34 44° ENE 18:57:41 10° N
STARLINK-1166 4.4 18:49:52 10° WNW 18:53:44 39° SW 18:55:55 22° SSE
STARLINK-1089 3.9 18:52:00 10° NW 18:56:07 62° NNE 18:58:50 20° ESE
Meteor 1-12 Rocket 4.4 18:51:07 10° N 18:56:41 58° ENE 19:00:22 22° SSE
STARLINK-1231 3.5 18:54:12 10° SW 18:58:20 83° SSE 19:02:29 10° ENE
STARLINK-1107 3.8 18:56:58 10° NW 19:01:06 66° NNE 19:03:36 23° ESE
Lacrosse 5 3.0 18:56:42 10° NW 19:01:25 37° NNE 19:05:40 12° E
Terra 2.6 18:59:38 22° ESE 19:02:09 38° ENE 19:06:34 10° N
Cosmos 1437 Rocket 3.8 19:01:38 24° ESE 19:02:22 26° E 19:05:35 10° NE
STARLINK-1232 3.5 18:59:10 10° SW 19:03:19 89° SE 19:07:28 10° ENE
STARLINK-1066 3.7 19:01:57 10° NW 19:06:06 71° NNE 19:08:24 25° ESE
Cosmos 2142 Rocket 4.4 19:00:56 10° N 19:07:07 80° E 19:11:26 21° SSE
STARLINK-1208 3.6 19:04:08 10° WSW 19:08:16 85° NW 19:12:27 10° NE
Cosmos 1452 Rocket 3.9 19:05:40 22° SSE 19:08:40 44° ESE 19:13:40 10° NNE
IGS 5A 3.7 19:07:44 21° S 19:10:25 63° W 19:14:34 10° NNW
STARLINK-1081 3.7 19:06:56 10° NW 19:11:05 76° NNE 19:13:11 28° ESE
NOSS 2-3 (D) 4.1 19:07:48 10° SW 19:12:02 65° NW 19:17:02 10° NNE
STARLINK-1271 3.7 19:09:08 10° WSW 19:13:17 79° NNW 19:17:26 10° NE
Cosmos 407 Rocket 4.4 19:08:36 10° NNW 19:13:40 45° WSW 19:17:37 16° S
Okean 3 3.5 19:11:28 18° S 19:14:37 83° W 19:18:58 10° N
Cosmos 1300 Rocket 3.5 19:10:43 10° N 19:15:12 77° E 19:17:22 30° SSE
Cosmos 1420 Rocket 3.9 19:10:51 13° S 19:15:26 73° ESE 19:20:38 10° NNE
USA 245 4.0 19:13:17 19° SSW 19:15:37 42° WSW 19:18:41 10° NNW
STARLINK-1070 3.6 19:11:53 10° NW 19:16:03 82° NNE 19:17:57 31° ESE
USA 215 4.1 19:11:49 10° E 19:17:58 45° NNE 19:24:07 10° NW
STARLINK-1154 3.8 19:14:08 10° WSW 19:18:16 74° NNW 19:22:25 10° NE
Meteor 1-13 Rocket 4.2 19:14:31 20° S 19:18:22 71° E 19:24:01 10° NNE
COSMOS 2406 3.5 19:14:44 10° NNW 19:20:28 65° WSW 19:23:55 24° S
Cosmos 2221 Rocket 3.7 19:17:14 18° SSW 19:20:34 78° W 19:25:08 10° N
STARLINK-1069 3.5 19:16:51 10° WNW 19:21:01 88° NNE 19:22:43 35° ESE
Meteor 2-4 Rocket 3.8 19:16:58 11° SSW 19:22:14 72° WNW 19:27:37 10° N
STARLINK-1197 3.9 19:19:07 10° WSW 19:23:14 69° NNW 19:27:23 10° NE
Crew Dragon 2.5 19:21:49 10° NNW 19:23:28 18° NNE 19:24:08 16° NE
Cosmos 371 Rocket 3.3 19:21:27 26° S 19:24:00 59° ESE 19:28:48 10° NNE
SPOT 1/Viking Rocket 3.9 19:21:53 21° S 19:25:17 61° W 19:30:25 10° NNW
STARLINK-1085 3.5 19:21:51 10° WNW 19:26:01 86° SW 19:27:32 38° SE
Resurs 01 Rocket 4.0 19:23:22 10° SW 19:26:25 18° W 19:29:29 10° NW
STARLINK-1198 4.0 19:24:06 10° WSW 19:28:12 64° NNW 19:32:20 10° NE
Cosmos 1674 Rocket 3.7 19:27:45 37° SSE 19:29:13 56° E 19:33:31 10° NNE
MTI 4.1 19:27:02 10° NNE 19:29:55 44° E 19:29:55 44° E
STARLINK-1086 3.5 19:26:51 10° WNW 19:30:59 80° SW 19:32:19 42° SE
NOSS 3-1 (A) 4.4 19:26:40 10° WSW 19:32:02 48° NW 19:38:19 10° NNE
Nadezhda 4 Rocket 4.2 19:29:05 28° SSE 19:32:03 51° E 19:37:58 10° NNE
STARLINK-1199 4.2 19:29:08 10° WSW 19:33:14 60° NNW 19:37:21 10° NE
STARLINK-1269 4.3 19:36:26 35° ESE 19:36:26 35° ESE 19:39:29 10° ENE
SPOT 5 3.1 19:33:14 29° S 19:35:51 77° WSW 19:41:10 10° NNW
STARLINK-1095 3.5 19:31:49 10° WNW 19:35:57 74° SW 19:37:05 46° SE
Abrixas rocket 3.4 19:33:24 10° WNW 19:36:11 38° N 19:38:15 16° ENE
Cosmos 1378 Rocket 3.8 19:35:33 39° SE 19:36:44 51° E 19:41:01 10° NNE
STARLINK-1210 4.3 19:34:07 10° WSW 19:38:12 56° NNW 19:42:18 10° NE
Cosmos 2279 Rocket 4.2 19:33:54 10° NNW 19:40:07 70° W 19:43:59 24° S
STARLINK-1200 4.1 19:41:14 40° ESE 19:41:14 40° ESE 19:44:31 10° ENE
STARLINK-1077 3.6 19:36:48 10° WNW 19:40:56 68° SW 19:41:51 49° SSE
Cosmos 1741 Rocket 4.1 19:36:57 10° NNW 19:42:09 63° ENE 19:44:11 36° SE
STARLINK-1219 4.4 19:39:09 10° WSW 19:43:12 53° NNW 19:47:17 10° NE
Cosmos 2297 4.2 19:43:35 34° SE 19:45:04 41° ESE 19:50:24 10° NE
STARLINK-1192 3.9 19:46:00 45° ESE 19:46:00 45° ESE 19:49:31 10° ENE
STARLINK-1075 3.7 19:41:47 10° WNW 19:45:54 63° SW 19:46:39 51° S
Cosmos 1975 Rocket 4.4 19:46:39 24° E 19:46:53 24° E 19:50:26 10° NE
STARLINK-1244 3.7 19:50:46 51° ESE 19:50:46 51° ESE 19:54:30 10° ENE
Okean 2 Rocket 4.2 19:46:34 10° NNW 19:50:40 38° W 19:52:51 23° SW
STARLINK-1093 3.7 19:46:47 10° WNW 19:50:52 57° SW 19:51:26 52° S
BREEZE M DEB (TANK) 2.3 19:46:04 10° WSW 19:51:06 84° NNW 19:51:51 44° ENE
STARLINK-1071 4.4 19:49:04 10° NW 19:53:05 47° NNE 19:55:02 26° E
STARLINK-1138 3.6 19:55:32 57° SE 19:55:32 57° SE 19:59:30 10° ENE
STARLINK-1074 3.8 19:51:47 10° WNW 19:55:49 52° SW 19:56:13 50° SSW
Cosmos 1850 Rocket 4.0 19:50:56 10° NNW 19:56:19 86° ENE 19:58:13 42° SSE
STARLINK-1110 4.4 19:53:15 10° NW 19:57:18 49° NNE 19:59:04 29° E
STARLINK-1203 3.6 19:57:00 58° S 19:57:23 61° SE 20:01:33 10° ENE
Cosmos 2082 Rocket 2.2 19:54:34 10° NNW 20:00:19 79° WSW 20:02:27 40° SSE
STARLINK-1143 3.5 20:00:20 63° SSE 20:00:23 63° SE 20:04:30 10° ENE
BREEZE-M DEB (TANK) 3.9 20:01:34 40° SE 20:01:48 41° SE 20:11:04 10° ENE
ERBS 2.7 20:00:02 24° WSW 20:01:49 59° NW 20:05:07 10° NE
ERS-1 Rocket 4.1 20:00:29 23° SSW 20:02:58 37° W 20:07:37 10° NNW
STARLINK-1124 4.2 19:59:01 10° NW 20:03:05 53° NNE 20:04:36 33° E
Cosmos 1110 Rocket 4.1 20:03:16 44° SE 20:04:22 53° ESE 20:09:25 10° NNE
STARLINK-1241 3.4 20:05:04 66° S 20:05:21 69° SE 20:09:29 10° ENE
STARLINK-1088 4.1 20:01:47 10° WNW 20:05:44 44° SW 20:05:45 44° SW
SeaSat 1 2.3 20:01:55 10° NNE 20:06:52 74° ESE 20:08:33 42° S
STARLINK-1122 4.1 20:03:59 10° NW 20:08:04 56° NNE 20:09:23 38° E
Okean 1 Rocket 3.0 20:04:10 10° N 20:08:40 81° W 20:09:39 54° S
Cosmos 1833 Rocket 3.5 20:03:46 10° NW 20:09:00 41° WSW 20:11:09 29° SSW
Cosmos 1092 Rocket 4.0 20:07:42 39° SSE 20:09:54 63° E 20:15:58 10° NNE
STARLINK-1239 3.4 20:09:50 65° SSW 20:10:19 75° SE 20:14:28 10° ENE
STARLINK-1115 4.3 20:06:47 10° WNW 20:10:32 40° SW 20:10:32 40° SW
Meteor 1-15 Rocket 4.4 20:05:14 10° NNW 20:11:10 73° W 20:13:34 37° S
Cosmos 304 Rocket 3.6 20:11:44 49° S 20:12:59 81° ESE 20:17:48 10° NNE
STARLINK-1126 4.0 20:08:55 10° NW 20:13:02 60° NNE 20:14:08 43° E
STARLINK-1240 3.4 20:14:37 60° SW 20:15:18 81° SE 20:19:28 10° ENE
Cosmos 2369 Rocket 3.5 20:15:28 24° ESE 20:15:29 24° ESE 20:19:52 10° NE
STARLINK-1076 4.5 20:11:48 10° WNW 20:15:20 36° SW 20:15:20 36° SW
Cosmos 332 Rocket 4.2 20:14:06 27° SW 20:16:43 62° WNW 20:21:36 10° NNE
Okean 2 3.6 20:17:46 52° E 20:17:47 52° E 20:21:49 10° NNE
Cosmos 1805 3.1 20:14:04 10° N 20:18:00 77° E 20:18:10 76° ESE
STARLINK-1082 3.9 20:13:56 10° NW 20:18:04 64° NNE 20:18:57 49° E
Aureole 2 Rocket 3.1 20:19:11 44° NNE 20:19:11 44° NNE 20:21:24 10° NNE
EO 1 Del DPAF 3.4 20:15:07 10° NNE 20:18:36 58° E 20:18:36 58° E
Cosmos 1066 Rocket 4.3 20:16:25 33° SSW 20:18:53 69° WNW 20:24:16 10° N
STARLINK-1216 3.5 20:19:23 54° SW 20:20:16 87° SSE 20:24:26 10° ENE
Cosmos 1455 Rocket 3.7 20:17:29 10° N 20:21:36 39° ENE 20:22:00 38° E
EXPRESS MD2 3.8 20:19:41 26° SW 20:22:01 81° SSE 20:29:56 10° ENE
SL-4 R/B 2.8 20:19:36 10° NW 20:21:42 31° WNW 20:21:42 31° WNW
STARLINK-1100 3.8 20:18:54 10° NW 20:23:03 69° NNE 20:23:44 56° E
STARLINK-1237 3.5 20:24:10 48° WSW 20:25:15 87° NW 20:29:26 10° ENE
Cosmos 1943 Rocket 2.7 20:26:07 39° ESE 20:26:30 39° ESE 20:31:39 10° NE
Cosmos 1378 3.2 20:27:54 71° W 20:27:56 71° W 20:31:40 10° N
STARLINK-1083 3.6 20:23:52 10° NW 20:28:02 74° NNE 20:28:30 65° E
Cosmos 1331 Rocket 3.8 20:26:58 53° S 20:28:10 77° ESE 20:33:21 10° NNE
ISS -3.1 20:25:38 10° WNW 20:28:26 56° NW 20:28:26 56° NW
Cosmos 1842 3.7 20:30:09 50° ENE 20:30:09 50° ENE 20:33:37 10° NNE
STARLINK-1202 3.6 20:28:57 43° WSW 20:30:15 81° NNW 20:34:25 10° NE
Cosmos 1302 Rocket 4.4 20:32:02 44° ESE 20:32:27 44° ESE 20:37:29 10° NNE
Cosmos 2195 Rocket 4.4 20:30:15 43° S 20:32:31 81° E 20:38:50 10° N
STARLINK-1125 3.5 20:28:51 10° NW 20:33:01 79° NNE 20:33:17 74° E
Cosmos 2278 Rocket 4.0 20:28:33 10° WSW 20:33:25 29° NW 20:38:19 10° N
SL-8 R/B 4.3 20:30:51 10° WNW 20:35:35 56° N 20:40:04 12° E
STARLINK-1109 3.5 20:33:49 10° NW 20:37:58 85° NNE 20:38:03 84° ENE
Terra 3.4 20:38:31 21° WSW 20:39:59 25° W 20:43:56 10° NW
STARLINK-1246 3.8 20:38:28 33° WSW 20:40:12 71° NNW 20:44:21 10° NE
ALOS 2 3.2 20:41:59 42° E 20:42:29 44° ENE 20:46:39 10° N
STARLINK-1091 3.5 20:38:48 10° WNW 20:42:50 84° WNW 20:42:50 84° WNW
Cosmos 1428 Rocket 4.4 20:41:45 46° S 20:43:44 78° E 20:50:03 10° N
Lacrosse 5 2.0 20:39:38 10° NW 20:44:35 54° SW 20:44:50 54° SW
Spot 4 3.8 20:44:17 64° S 20:45:03 86° WSW 20:49:57 10° NNW
STARLINK-1224 3.9 20:43:14 29° WSW 20:45:11 66° NNW 20:49:19 10° NE
Thor Agena Rocket 3.7 20:40:31 10° N 20:45:49 73° WNW 20:47:30 44° SW
STARLINK-1072 3.6 20:43:47 10° WNW 20:47:37 74° W 20:47:37 74° W
STARLINK-1225 4.0 20:48:01 26° WSW 20:50:11 61° NNW 20:54:19 10° NE
STARLINK-1096 3.8 20:48:48 10° WNW 20:52:26 65° W 20:52:26 65° W
STARLINK-1230 4.2 20:52:48 23° W 20:55:10 57° NNW 20:59:16 10° NE
Cosmos 1544 Rocket 3.5 20:53:05 10° N 20:57:25 69° E 20:57:29 69° E
STARLINK-1079 3.9 20:53:44 10° WNW 20:57:10 56° W 20:57:10 56° W
Cosmos 1553 Rocket 4.0 20:52:45 10° N 20:59:07 71° E 21:00:53 48° SSE
SL-4 R/B 4.3 21:01:57 12° NNW 21:01:57 12° NNW 21:02:12 10° NNW
STARLINK-1243 4.3 20:57:34 21° W 21:00:09 54° NNW 21:04:15 10° NE
USA 215 3.2 20:58:28 43° SSE 21:00:45 74° SW 21:07:19 10° NW
Cosmos 1726 3.9 20:59:08 10° NNE 21:01:55 23° ENE 21:01:55 23° ENE
STARLINK-1116 4.2 20:58:45 10° WNW 21:01:58 49° W 21:01:58 49° W
Cosmos 1766 4.4 20:59:30 10° NNW 21:03:05 35° W 21:03:05 35° W
Cosmos 2026 Rocket 4.1 21:01:22 42° SSW 21:03:32 71° W 21:09:52 10° N
STARLINK-1236 4.4 21:02:20 18° W 21:05:10 51° NNW 21:09:13 10° NE
Aureole 3 Rocket 3.9 20:59:57 10° N 21:05:18 86° E 21:07:23 48° SSE
SL-27 R/B 3.4 21:03:04 10° N 21:06:05 46° NE 21:06:05 46° NE
Cosmos 1461 3.8 21:06:45 36° W 21:07:54 46° NW 21:12:07 10° NNE
Cosmos 1953 3.5 21:04:30 10° N 21:08:04 33° ENE 21:08:04 33° ENE
FALCON 9 R/B 4.4 21:11:19 19° ESE 21:11:19 19° ESE 21:15:53 10° E
NOSS 2-2 (D) 3.5 21:09:53 61° NNW 21:09:53 61° NNW 21:13:36 10° NNE
Cosmos 1340 Rocket 4.4 21:06:21 10° NNE 21:09:47 26° ENE 21:09:57 26° ENE
Cosmos 1271 Rocket 3.3 21:11:25 51° NE 21:11:25 51° NE 21:14:34 10° NNE
NOSS 3-2 (C) 4.4 21:06:27 10° NNW 21:13:51 60° NE 21:19:44 21° ESE
STARLINK-1102 4.4 21:11:02 10° NW 21:15:04 49° NNE 21:16:10 38° ENE
Cosmos 1758 3.4 21:12:35 10° N 21:16:19 74° NNE 21:16:19 74° NNE
Cosmos 1707 3.2 21:18:47 57° NE 21:18:47 57° NE 21:22:06 10° NNE
Cosmos 2292 Rocket 4.4 21:18:43 38° E 21:18:43 38° E 21:22:07 10° NNE
Cosmos 1900 4.2 21:13:51 10° NNW 21:18:54 89° ENE 21:19:29 71° SE
STARLINK-1111 4.3 21:15:59 10° NW 21:20:03 52° NNE 21:20:56 43° ENE
NOSS 3-4 (A) 4.1 21:22:43 35° ESE 21:22:50 35° ESE 21:28:23 10° NE
NOSS 3-4 (C) 4.1 21:22:49 35° ESE 21:22:56 35° ESE 21:28:29 10° NE
Cosmos 1975 Rocket 4.3 21:23:46 31° W 21:24:34 33° WNW 21:28:37 10° N
STARLINK-1073 4.2 21:20:58 10° NW 21:25:03 55° NNE 21:25:43 48° ENE
ATLAS 3B R/B 4.0 21:23:43 10° NNW 21:29:52 35° NE 21:36:09 10° ESE
STARLINK-1121 4.1 21:25:55 10° NW 21:30:02 59° NNE 21:30:28 55° ENE
Meteor 2-10 3.9 21:27:11 10° N 21:32:16 73° E 21:32:53 64° SE
Cosmos 2266 Rocket 4.0 21:31:36 51° SSE 21:32:59 66° E 21:39:01 10° NNE
Aureole 3 4.4 21:30:00 10° N 21:32:49 32° NE 21:32:49 32° NE
CENTAUR R/B 3.4 21:26:15 10° NW 21:34:16 68° NE 21:40:34 21° SE
STARLINK-1106 3.9 21:30:54 10° NW 21:35:01 63° NNE 21:35:15 61° NE
BREEZE-M DEB (TANK) 4.3 21:29:35 10° WNW 21:35:38 29° WSW 21:35:38 29° WSW
SL-4 R/B 4.2 21:38:06 20° E 21:38:06 20° E 21:40:03 10° ENE
Cosmos 1242 Rocket 3.7 21:37:35 38° NW 21:37:35 38° NW 21:40:39 10° N
STARLINK-1112 3.8 21:35:53 10° NW 21:40:01 67° NNE 21:40:03 67° NE
Cosmos 1674 4.0 21:43:44 31° ENE 21:43:44 31° ENE 21:46:29 10° NNE
ATLAS CENTAUR R/B 3.4 21:44:37 20° E 21:44:37 20° E 21:46:42 10° ENE
Cosmos 2082 Rocket 4.4 21:41:47 10° WNW 21:43:23 11° W 21:44:18 11° WSW
Cosmos 1503 Rocket 4.1 21:38:09 10° NNW 21:43:27 69° ENE 21:44:32 54° SE
STARLINK-1128 3.8 21:40:52 10° NW 21:44:50 71° N 21:44:50 71° N
Cosmos 1470 3.9 21:42:17 10° NNW 21:45:16 34° WNW 21:45:16 34° WNW
STARLINK-1113 3.8 21:45:50 10° NW 21:49:36 69° NNW 21:49:36 69° NNW
Cosmos 883 Rocket 4.4 21:44:44 10° N 21:50:55 79° E 21:52:32 52° SSE
ATLAS 2AS CENTAUR R/B 3.1 21:48:30 44° S 21:51:07 66° ESE 21:59:00 10° NE
Meteor 2-19 Rocket 4.4 21:50:34 55° S 21:52:04 90° SE 21:58:15 10° N
Cosmos 1867 4.4 21:47:13 10° NNW 21:52:30 47° NE 21:55:32 24° ESE
STARLINK-1119 3.9 21:50:48 10° NW 21:54:23 64° NW 21:54:23 64° NW
Helios 1A 3.5 21:57:21 48° WNW 21:57:21 48° WNW 22:01:01 10° NNW
BREEZE-M DEB (TANK) 3.6 21:49:16 10° WNW 21:56:22 53° WSW 21:56:22 53° WSW
Cosmos 968 Rocket 3.4 21:52:33 10° NNW 21:57:41 66° WSW 21:58:02 64° SW
Cosmos 1354 Rocket 4.0 21:52:59 10° NNW 21:58:19 82° ENE 21:59:16 61° SE
Cosmos 2369 Rocket 2.6 21:57:13 38° WSW 21:59:05 55° WNW 22:04:40 10° NNE
STARLINK-1114 4.0 21:55:48 10° WNW 21:59:10 58° NW 21:59:10 58° NW
NOSS 3-2 (A) 4.1 21:52:32 10° NW 22:00:04 62° WSW 22:02:51 42° S
STARLINK-1130 (DARKSAT) 4.1 22:00:46 10° WNW 22:03:56 51° WNW 22:03:56 51° WNW
Cosmos 1908 3.7 22:01:30 10° N 22:04:55 56° NE 22:04:55 56° NE
Cosmos 2315 Rocket 3.9 21:59:22 10° N 22:05:37 83° E 22:07:22 50° SSE
CZ-2D R/B 4.2 22:02:59 10° NE 22:05:50 15° E 22:07:36 13° ESE
RESURS DK-1 4.4 22:07:31 18° E 22:07:31 18° E 22:09:50 10° ENE
USA 238 DEB 4.0 22:00:11 10° NW 22:07:12 54° WSW 22:08:58 45° SSW
USA 238 4.0 22:00:16 10° NW 22:07:18 55° WSW 22:09:06 45° SSW
Cosmos 1025 Rocket 4.2 22:08:42 31° W 22:08:57 32° WNW 22:12:49 10° N
STARLINK-1084 4.3 22:05:45 10° WNW 22:08:43 45° WNW 22:08:43 45° WNW
Cosmos 1943 Rocket 3.4 22:07:36 22° WSW 22:10:17 34° NW 22:15:22 10° N
Meteor 2-5 Rocket 4.0 22:10:20 45° SE 22:11:29 53° E 22:16:54 10° NNE
Cosmos 1726 Rocket 3.8 22:08:02 10° N 22:12:18 56° ENE 22:12:35 54° E
STARLINK-1098 4.5 22:10:45 10° WNW 22:13:31 40° WNW 22:13:31 40° WNW
Cosmos 2098 Rocket 4.1 22:13:59 49° S 22:16:02 89° E 22:23:26 10° N
Resurs 1-4 Rocket 4.0 22:12:33 10° NE 22:16:15 19° E 22:18:01 16° ESE
Helios 1B rocket 2.3 22:12:30 10° NNE 22:16:32 85° NNE 22:16:32 85° NNE
SL-8 R/B 3.6 22:13:30 10° WNW 22:17:56 69° WSW 22:17:56 69° WSW
Meteor 2-15 4.5 22:12:43 10° NNW 22:18:49 66° W 22:20:17 50° SSW
ALOS 2 4.5 22:19:22 18° W 22:19:22 18° W 22:22:07 10° NW
KORONAS-FOTON 4.0 22:20:08 68° N 22:20:08 68° N 22:23:31 10° N
Nadezhda 2 Rocket 4.5 22:19:49 48° SSE 22:21:32 71° E 22:27:37 10° NNE
ATLAS 5 CENTAUR R/B 3.2 22:23:07 24° NW 22:23:07 24° NW 22:24:50 10° NNE
GEOS 3 Rocket 3.6 22:26:35 39° SE 22:28:37 82° NE 22:33:55 10° NW
COSMOS 2455 2.8 22:28:32 53° S 22:30:01 77° ESE 22:36:04 10° NE
BREEZE-M DEB (TANK) 3.5 22:30:08 10° WNW 22:35:27 39° N 22:37:48 10° ENE
Cosmos 2058 Rocket 3.2 22:31:28 10° N 22:35:52 64° E 22:36:30 56° ESE
Cosmos 1726 4.0 22:34:17 10° NW 22:36:25 21° WNW 22:36:25 21° WNW
IRAS Rocket 4.3 22:35:38 43° SSE 22:37:35 79° ENE 22:43:10 10° NNW
Cosmos 2228 3.1 22:34:36 10° NNW 22:38:43 60° W 22:38:43 60° W
SJ 16-02 4.1 22:37:01 10° NNE 22:39:34 15° NE 22:42:07 10° E
Meteor 1-29 3.5 22:37:06 10° N 22:39:53 54° NNW 22:39:53 54° NNW
Cosmos 1174 4.0 22:43:31 53° NNE 22:43:31 53° NNE 22:46:23 10° NNE
SL-14 R/B 3.4 22:43:13 65° E 22:43:13 65° E 22:47:01 10° NNE
BREEZE-M R/B 3.9 22:44:13 37° ESE 22:44:13 37° ESE 22:46:45 10° ENE
Cosmos 1953 4.3 22:41:28 10° NW 22:43:45 18° WNW 22:43:45 18° WNW
Okean 1-7 Rocket 3.4 22:44:37 71° SSE 22:45:04 83° E 22:49:36 10° N
Cosmos 1340 Rocket 4.4 22:42:49 10° NW 22:45:32 24° WNW 22:45:32 24° WNW
Cosmos 921 Rocket 3.5 22:46:47 44° ESE 22:47:08 46° ESE 22:51:14 10° NNE
Cosmos 1300 2.8 22:46:10 10° N 22:49:58 64° E 22:50:08 63° E
Cosmos 1626 Rocket 4.3 22:52:29 37° ESE 22:53:21 41° E 22:57:26 10° NNE
COSMOS 2487 3.9 22:51:49 10° NW 22:53:49 27° WNW 22:53:49 27° WNW
Nadezhda 1 Rocket 4.3 22:51:43 10° N 22:57:50 63° E 23:01:16 27° SSE
Cosmos 1626 2.1 22:59:58 73° WNW 22:59:58 73° WNW 23:03:35 10° N
Cosmos 1606 Rocket 4.5 22:57:55 10° NNW 23:01:42 33° W 23:01:42 33° W
STARLINK-60 3.6 23:04:02 55° NNE 23:04:02 55° NNE 23:06:48 10° NE
NOSS 5 (C) 4.5 23:03:48 10° NW 23:07:04 88° NE 23:07:15 80° SE
MOZ.5/SAFIR/RUBIN 5/SL-8 3.8 23:05:36 41° SSE 23:07:09 75° ENE 23:11:47 10° N
Cosmos 2297 Rocket 3.5 23:02:01 10° NNW 23:07:17 38° NE 23:12:31 10° ESE
UNK 4.2 23:05:40 30° SE 23:07:46 57° ENE 23:12:18 10° N
Cosmos 220 Rocket 4.2 23:09:37 51° SSE 23:10:25 62° ESE 23:14:48 10° NNE
CZ-4B R/B 4.4 23:08:07 10° NNE 23:13:02 43° E 23:15:20 27° SSE
NOSS 3-4 (A) 4.1 23:10:07 24° WSW 23:13:31 47° NW 23:19:41 10° NNE
NOSS 3-4 (C) 4.1 23:10:13 24° WSW 23:13:36 48° NW 23:19:47 10° NNE
SL-16 R/B 2.6 23:10:56 24° SSE 23:14:50 77° ENE 23:21:01 10° NNW
SL-19 R/B 4.4 23:09:37 10° N 23:14:56 63° WNW 23:16:57 38° SW
Cosmos 1812 Rocket 4.3 23:10:51 10° N 23:15:12 48° ENE 23:17:22 26° SE
SL-4 R/B 2.4 23:13:40 39° WSW 23:15:26 75° NNW 23:20:11 10° ENE
Timation 2 Rocket 3.8 23:09:43 10° NNW 23:16:06 80° WSW 23:19:35 27° SSE
Cosmos 1437 3.1 23:20:41 53° NNW 23:20:41 53° NNW 23:23:11 10° N
Cosmos 1777 Rocket 4.2 23:15:23 10° NNW 23:20:28 53° WSW 23:21:42 43° SSW
ATLAS 3B R/B 2.7 23:14:13 10° NW 23:20:57 64° WSW 23:25:35 22° SSE
ATLAS CENTAUR R/B 2.2 23:20:47 34° W 23:22:03 45° NW 23:26:04 10° NNE
CENTAUR R/B 3.8 23:17:27 10° NW 23:24:48 37° WSW 23:27:41 30° SSW
Cosmos 1602 Rocket 3.6 23:24:49 45° SSE 23:26:02 73° E 23:30:21 10° NNE
FALCON 9 DEB 3.2 23:28:51 64° SE 23:28:51 64° SE 23:32:12 10° ENE
STARLINK-1352 4.5 23:30:41 28° SE 23:30:41 28° SE 23:33:27 10° ENE
OE (NEXTSAT) 4.1 23:30:24 80° SW 23:30:33 84° SSE 23:34:02 10° ENE
Cosmos 1745 Rocket 3.9 23:28:05 35° SSW 23:30:52 77° W 23:37:02 10° N
STARLINK-1368 4.4 23:31:45 29° SE 23:31:45 29° SE 23:34:34 10° ENE
IRS-1D 4.5 23:26:38 10° NNE 23:31:43 43° E 23:34:48 21° SSE
STARLINK-29 3.0 23:32:09 70° NW 23:32:15 71° NNW 23:35:27 10° NE
Meteor 2-1 Rocket 4.2 23:26:45 10° N 23:32:18 80° E 23:35:42 24° SSE
Cosmos 1455 3.4 23:28:52 10° N 23:32:23 38° ENE 23:34:30 20° SE
STARLINK-1369 4.3 23:34:01 30° SE 23:34:01 30° SE 23:36:53 10° ENE
BREEZE-M DEB (TANK) 3.9 23:31:54 10° WNW 23:35:43 52° SSW 23:45:10 10° SE
Cosmos 1867 4.4 23:31:11 10° NW 23:35:55 31° WSW 23:36:08 30° WSW
GP-B 4.0 23:31:52 10° NNE 23:36:09 45° E 23:38:44 22° SSE
EP 2 4.5 23:36:29 83° E 23:36:29 83° E 23:39:31 10° NE
STARLINK-1372 4.2 23:36:54 33° SE 23:36:54 33° SE 23:40:02 10° ENE
STARLINK-1329 4.1 23:38:40 34° SE 23:38:40 34° SE 23:41:49 10° ENE
STARLINK-1378 4.1 23:39:00 35° SE 23:39:01 35° SE 23:42:16 10° ENE
STARLINK-1365 4.0 23:39:40 37° SE 23:39:43 37° SE 23:43:00 10° ENE
Cosmos-2242 4.3 23:36:05 10° N 23:40:04 37° ENE 23:43:44 12° SE
STARLINK-1379 4.0 23:41:07 36° SE 23:41:12 36° SE 23:44:28 10° ENE
STARLINK-1362 4.0 23:41:36 36° SE 23:41:43 36° SE 23:45:00 10° ENE
ATLAS 2AS CENTAUR R/B 4.0 23:35:54 13° WSW 23:42:37 41° NW 23:50:00 10° NNE
Cosmos 2227 Rocket 2.7 23:37:23 10° NNW 23:43:01 60° ENE 23:48:37 10° SE
STARLINK-1373 3.9 23:43:03 37° SE 23:43:10 37° SE 23:46:27 10° ENE
RESURS DK-1 3.1 23:43:24 33° WSW 23:44:39 43° WNW 23:48:38 10° NNE
Cosmos 1697 Rocket 4.0 23:41:27 17° SSE 23:45:03 33° ESE 23:50:03 10° NE
STARLINK-1390 3.8 23:45:59 39° SSE 23:46:16 40° SE 23:49:36 10° ENE
CZ-2D R/B 2.1 23:41:13 10° N 23:46:29 75° WNW 23:48:55 32° SSW
Cosmos 1763 Rocket 4.2 23:43:43 23° SSE 23:46:34 44° ESE 23:51:23 10° NNE
Cosmos 1356 Rocket 3.8 23:44:48 10° NNW 23:48:48 46° W 23:49:41 39° SW
ADEOS II 2.8 23:44:29 10° NNE 23:49:34 47° E 23:53:11 18° SSE
Cosmos 1703 4.0 23:51:25 24° SSE 23:53:28 48° E 23:57:17 10° NNE
CZ-4C R/B 4.1 23:55:04 33° WSW 23:55:47 36° W 23:59:46 10° NNW
